Location: Unnamed
(48.6007°N, 2.4808°E)
Time: 16:26:57
(UTC+02:00)

AAUSAT CUBESAT 2 - Visible Passes

Search period start: 01 April 2023 00:00
Search period end: 11 April 2023 00:00
Orbit: 557 x 563 km, 97.6° (Epoch: 31 March)

Date Brightness Start Highest point End Pass type
(mag) Time Alt. Az. Time Alt. Az. Time Alt. Az.
01 Apr ? 05:35:11 10° NE 05:38:22 22° E 05:41:31 10° SE visible
02 Apr ? 05:34:05 10° NE 05:37:13 21° E 05:40:20 10° SE visible
03 Apr ? 05:32:57 10° NE 05:36:03 21° E 05:39:07 10° SE visible
04 Apr ? 05:31:47 10° NE 05:34:50 20° E 05:37:51 10° SE visible
05 Apr ? 05:30:36 10° NE 05:33:36 20° E 05:36:34 10° SE visible
06 Apr ? 05:29:22 10° NE 05:32:19 19° E 05:35:14 10° SE visible
07 Apr ? 05:28:07 10° NE 05:31:01 19° E 05:33:52 10° SE visible
08 Apr ? 05:26:50 10° NE 05:29:40 18° E 05:32:28 10° SE visible
09 Apr ? 05:25:32 10° NE 05:28:18 18° E 05:31:02 10° SE visible
10 Apr ? 05:24:12 10° NE 05:26:54 17° E 05:29:34 10° SE visible
